Osoyoos, British Columbia

10:43 PM PDT on April 24, 2017 (GMT -0700)
Osoyoos

Weather History for CWYY - October, 2013

Change the Weather History Date:

Thursday, October 17, 2013

  Actual Average (CYYF) Record (CYYF)
Temperature  
Mean Temperature 48 °F -  
Max Temperature 63 °F 54 °F 68 °F (2003)
Min Temperature 33 °F 36 °F 24 °F (1996)
Degree Days  
Heating Degree Days 17    
Moisture  
Dew Point 38 °F    
Average Humidity 70    
Maximum Humidity 97    
Minimum Humidity 34    
Precipitation  
Precipitation 0.00 in - - ()
Sea Level Pressure  
Sea Level Pressure 30.28 in    
Wind  
Wind Speed 2 mph ()    
Max Wind Speed 10 mph    
Max Gust Speed 20 mph    
Averages and records for this station are not official NWS values.
T = Trace of Precipitation, MM = Missing Value Source: Averaged Metar Reports

Daily Weather History Graph

Daily Weather History Graph

Search for Another Location

Airport or City:

Trip Planner

Search our weather history database for the weather conditions in past years. The results will help you decide how hot, cold, wet, or windy it might be!

Date:

Astronomy

Oct. 17, 2013 Rise Set
Actual Time 7:21 AM PDT 6:03 PM PDT
Civil Twilight 6:49 AM PDT 6:35 PM PDT
Nautical Twilight 6:13 AM PDT 7:11 PM PDT
Astronomical Twilight 5:36 AM PDT 7:48 PM PDT
Moon 5:22 PM PDT (10/17) 5:54 AM PDT (10/17)
Length of Visible Light 11h 45m
Length of Day
10h 41m
Waxing Gibbous, 98% of the Moon is Illuminated
Oct 17
Waxing Gibbous
Oct 18
Full
Oct 26
Last Quarter
Nov 3
New
Nov 9
First Quarter

Hourly Weather History & Observations

Time (PDT) Temp. Dew Point Humidity Pressure Visibility Wind Dir Wind Speed Gust Speed Precip Events Conditions
12:00 AM 42.1 °F 37.6 °F 84% 30.24 in - SE 1.2 mph - N/A   Unknown
1:00 AM 40.3 °F 36.9 °F 88% 30.25 in - ENE 1.2 mph - N/A   Unknown
2:00 AM 38.3 °F 35.8 °F 91% 30.25 in - ESE 1.2 mph - N/A   Unknown
3:00 AM 37.2 °F 35.4 °F 93% 30.25 in - ENE 1.2 mph - N/A   Unknown
4:00 AM 34.9 °F 33.4 °F 94% 30.27 in - Calm Calm - N/A   Unknown
5:00 AM 35 °F 33 °F 92% 30.29 in - ENE 1.2 mph - -  
5:00 AM 34.7 °F 33.4 °F 95% 30.29 in - ENE 1.2 mph - N/A   Unknown
6:00 AM 33.8 °F 31.5 °F 91% 30.30 in - East 1.2 mph - N/A   Unknown
7:00 AM 34.7 °F 33.8 °F 97% 30.31 in - Calm Calm - N/A   Unknown
8:00 AM 36.5 °F 34.7 °F 93% 30.31 in - ESE 1.2 mph - N/A   Unknown
9:00 AM 44.4 °F 40.1 °F 85% 30.32 in - ENE 1.2 mph - N/A   Unknown
10:00 AM 49.6 °F 41.5 °F 74% 30.33 in - SW 3.5 mph - N/A   Unknown
11:00 AM 54 °F 42 °F 53% 30.32 in - West 3.5 mph - -  
11:00 AM 54.3 °F 41.9 °F 63% 30.32 in - West 3.5 mph - N/A   Unknown
12:00 PM 56.7 °F 41.4 °F 57% 30.31 in - SSW 3.5 mph - N/A   Unknown
1:00 PM 60.3 °F 39.2 °F 46% 30.28 in - WNW 6.9 mph - N/A   Unknown
2:00 PM 61.9 °F 39.0 °F 43% 30.26 in - NW 8.1 mph 19.6 mph N/A   Unknown
3:00 PM 62.8 °F 35.4 °F 36% 30.25 in - NW 9.2 mph 17.3 mph N/A   Unknown
4:00 PM 63.1 °F 35.1 °F 35% 30.24 in - NW 10.4 mph 18.4 mph N/A   Unknown
5:00 PM 61 °F 40 °F 34% 30.25 in - WNW 6.9 mph - -  
5:00 PM 60.8 °F 39.7 °F 46% 30.25 in - WNW 6.9 mph - N/A   Unknown
6:00 PM 58.1 °F 39.6 °F 50% 30.25 in - NW 4.6 mph - N/A   Unknown
7:00 PM 53.4 °F 41.9 °F 65% 30.27 in - North 3.5 mph - N/A   Unknown
8:00 PM 52.5 °F 41.2 °F 65% 30.27 in - North 2.3 mph - N/A   Unknown
9:00 PM 52.5 °F 41.9 °F 67% 30.28 in - North 4.6 mph - N/A   Unknown
10:00 PM 48.4 °F 40.5 °F 74% 30.28 in - NE 3.5 mph - N/A   Unknown
11:00 PM 43 °F 37 °F 72% 30.30 in - East 1.2 mph - -  
11:00 PM 43.3 °F 37.0 °F 78% 30.30 in - East 1.2 mph - N/A   Unknown